Farmville, Virginia, United States (23901)
Lat: 37.30N, Lon: 78.39W
Wx Zone: VAZ060
Local Info
Past Weather Observations for Today

NOTE: This archive is for the closest National Weather Service station to Farmville. Information may differ from the station used for current weather conditions.

Click here for Long-term Archive

Time Weather Temperature Dewpoint Humidity Pressure Winds Precip Visibility
16:32
Mostly Cloudy
Thunder Storms
82°F / 28°C 73°F / 23°C 74% 30.01 in
(1016 mb)
SSE 17.3 mph
(SSE 28 kph)
- 10SM
15:54
Clear
84°F / 29°C 72°F / 22°C 66% 30.01 in
(1016 mb)
SSE 9.2 mph
(SSE 15 kph)
- 10SM
14:54
Partly Cloudy
84°F / 29°C 73°F / 23°C 70% 30.01 in
(1016 mb)
S 9.2 mph
(S 15 kph)
- 10SM
14:46
Mostly Cloudy
84°F / 29°C 73°F / 23°C 70% 30.01 in
(1016 mb)
S 10.4 mph
(S 17 kph)
- 10SM
13:54
Mostly Cloudy
88°F / 31°C 72°F / 22°C 59% 30.01 in
(1016 mb)
Calm - 10SM
12:54
Partly Cloudy
84°F / 29°C 72°F / 22°C 66% 30.01 in
(1016 mb)
Variable 3.5 mph
(Variable 6 kph)
- 10SM
11:54
Partly Cloudy
82°F / 28°C 72°F / 22°C 70% 30.04 in
(1017 mb)
Calm - 10SM
11:40
Partly Cloudy
82°F / 28°C 73°F / 23°C 74% 30.06 in
(1018 mb)
Calm - 10SM
10:54
Overcast
81°F / 27°C 73°F / 23°C 79% 30.06 in
(1018 mb)
Calm - 10SM
09:54
Overcast
79°F / 26°C 73°F / 23°C 84% 30.06 in
(1018 mb)
NNW 3.5 mph
(NNW 6 kph)
- 10SM
09:03
Overcast
77°F / 25°C 72°F / 22°C 83% 30.06 in
(1018 mb)
Calm - 10SM
08:54
Overcast
77°F / 25°C 73°F / 23°C 89% 30.06 in
(1018 mb)
Calm - 10SM
08:41
Overcast
77°F / 25°C 72°F / 22°C 83% 30.06 in
(1018 mb)
NW 3.5 mph
(NW 6 kph)
- 10SM
08:34
Overcast
77°F / 25°C 72°F / 22°C 83% 30.06 in
(1018 mb)
NE 3.5 mph
(NE 6 kph)
- 10SM
07:54
Overcast
75°F / 24°C 72°F / 22°C 89% 30.06 in
(1018 mb)
Calm - 7SM
07:20
Mostly Cloudy
73°F / 23°C 72°F / 22°C 94% 30.06 in
(1018 mb)
Calm - 7SM
07:12
Partly Cloudy
73°F / 23°C 72°F / 22°C 94% 30.06 in
(1018 mb)
Calm - 10SM
06:54
Clear
73°F / 23°C 72°F / 22°C 94% 30.06 in
(1018 mb)
Calm - 10SM
05:54
Partly Cloudy
Fog And Mist
72°F / 22°C 72°F / 22°C 100% 30.06 in
(1018 mb)
Calm - 5SM
05:43
Partly Cloudy
Fog And Mist
70°F / 21°C 70°F / 21°C 100% 30.06 in
(1018 mb)
Calm - 5SM
05:28
Clear
Fog And Mist
70°F / 21°C 70°F / 21°C 100% 30.04 in
(1017 mb)
Calm - 5SM
05:21
Clear
Fog And Mist
70°F / 21°C 70°F / 21°C 100% 30.04 in
(1017 mb)
Calm - 1 3/4SM
04:54
Overcast
Fog And Mist
72°F / 22°C 70°F / 21°C 94% 30.04 in
(1017 mb)
Calm - 5SM
04:28
Overcast
Fog And Mist
72°F / 22°C 72°F / 22°C 100% 30.04 in
(1017 mb)
Calm - 6SM
03:54
Overcast
72°F / 22°C 72°F / 22°C 100% 30.04 in
(1017 mb)
Calm - 7SM
03:29
Mostly Cloudy
72°F / 22°C 72°F / 22°C 100% 30.04 in
(1017 mb)
Calm - 7SM
02:54
Partly Cloudy
72°F / 22°C 70°F / 21°C 94% 30.04 in
(1017 mb)
NE 3.5 mph
(NE 6 kph)
- 7SM
01:54
Overcast
72°F / 22°C 72°F / 22°C 100% 30.06 in
(1018 mb)
Calm 0.03 in
(0.76 mm)
9SM
01:33
Overcast
72°F / 22°C 72°F / 22°C 100% 30.06 in
(1018 mb)
Calm 0.03 in
(0.76 mm)
10SM
00:54
Overcast
Thunder Storms
72°F / 22°C 70°F / 21°C 94% 30.06 in
(1018 mb)
Variable 3.5 mph
(Variable 6 kph)
0.06 in
(1.52 mm)
10SM
00:49
Overcast
Thunder Storms
72°F / 22°C 70°F / 21°C 94% 30.06 in
(1018 mb)
Calm 0.06 in
(1.52 mm)
10SM
00:09
Overcast
Thunder Storms
72°F / 22°C 70°F / 21°C 94% 30.06 in
(1018 mb)
N 3.5 mph
(N 6 kph)
0.04 in
(1.02 mm)
6SM
Time Weather Temperature Dewpoint Humidity Pressure Winds Precip Visibility


Weather for websites

WeatherForYou.com, LLC is not responsible for any damages or problems caused by this service. Current weather conditions are obtained from the closest station including government and personal stations which may have varying degrees of accuracy. Weather forecasts are derived from the NOAA NDFD. Like all things, this site belongs to Jesus Christ... He just trusts us to maintain it. If you have any questions or comments email webmaster@weatherforyou.com

Copyright © 2015, WeatherForYou.com LLC. All rights reserved.